www.pogodaiklimat.ru

Погода и климат >> Архив погоды >> Алжир >> Оран-Тафрауи


ПОГОДА в Оран-Тафрауи

  • Прогноз погоды в Оран-Тафрауи
  • Монитор погоды в Оран-Тафрауи

АРХИВ ПОГОДЫ в Оран-Тафрауи

Время (UTC), дата Ветер
(напр.,м/с)
 
Видим.   Явления Облачность Т
(С)
Тd
(С)
f
(%)
Тe
(С)
Тes
(С)
Комфортность P
(гПа)
Po
(гПа)
Тmin
(С)
Tmax
(С)
R
(мм)
R24
(мм)
S
(см)
12 15.08 СВ 6 10 км ясно +36.4 +15.3 29 +38 +45 очень
душно
1016.4 1004.0
15 15.08 СВ 8 10 км ясно +36.3 +15.0 28 +38 +39 очень
душно
1015.4 1003.0
18 15.08 СВ 7 10 км ясно +31.5 +17.0 42 +35 +35 очень
душно
1015.6 1003.0 +37.1
21 15.08 штиль 0 10 км ясно +26.4 +16.0 53 +30 +30 душно 1016.6 1003.8
00 16.08 штиль 0 10 км ясно +21.7 +14.0 62 +25 +25 комфорт 1016.4 1003.4
03 16.08 штиль 0 10 км ясно +22.5 +11.7 50 +25 +25 комфорт 1017.0 1004.0
06 16.08 З 2 10 км ясно +22.4 +12.7 54 +25 +25 комфорт 1017.6 1004.6 +22.4
09 16.08 СЗ 3 10 км ясно +27.9 +14.0 43 +30 +39 жарко 1017.7 1005.0
12 16.08 С 7 10 км ясно +34.9 +13.5 28 +36 +41 душно 1016.1 1003.7
15 16.08 С 7 10 км ясно +34.7 +13.6 28 +35 +38 очень
жарко
1015.2 1002.8
18 16.08 СВ 4 10 км ясно +30.9 +14.2 36 +33 +33 душно 1015.0 1002.4 +36.0
21 16.08 СВ 4 10 км ясно +25.3 +15.0 53 +28 +28 жарко 1016.2 1003.4
00 17.08 ЮЗ 2 10 км ясно +22.9 +15.3 62 +27 +27 душно 1016.4 1003.5
03 17.08 ЮЗ 3 10 км ясно +20.9 +14.4 66 +24 +24 комфорт 1016.0 1003.0
06 17.08 З 4 5000 м 5/3 300 м
[Frnb]
+22.8 +14.6 60 +26 +27 жарко 1016.6 1003.7 +21.0
09 17.08 З 2 10 км ясно +27.2 +18.6 59 +32 +42 очень
душно
1016.7 1003.9
12 17.08 В 6 10 км ясно +35.9 +18.1 35 +40 +47 очень
душно
1014.1 1001.7
15 17.08 СВ 6 10 км ясно +38.1 +17.6 30 +41 +45 опасность
перегрева
1012.8 1000.5
18 17.08 В 5 10 км ясно +31.6 +17.8 44 +36 +36 очень
душно
1012.4 999.9 +39.1
21 17.08 СВ 3 10 км ясно +25.8 +18.0 62 +30 +30 душно 1013.6 1000.8
00 18.08 ЮВ 2 8000 м ясно +22.6 +17.3 72 +27 +27 душно 1013.0 1000.1
03 18.08 З 5 7000 м 5/5 400 м
[St]
+24.0 +18.7 72 +29 +29 душно 1012.5 999.7
06 18.08 ЮЗ 5 6000 м 8/8 400 м
[St]
+24.4 +20.1 77 +30 +30 очень
душно
1013.0 1000.2 +21.5
09 18.08 З 4 7000 м ясно +27.4 +19.3 61 +33 +40 очень
душно
1014.0 1001.3
12 18.08 З 5 10 км 10/0
[]
+33.6 +18.0 40 +38 +43 очень
душно
1013.5 1001.0
15 18.08 СЗ 5 10 км 5/4 800 м
[Cu Sc Ac trans]
+33.1 +17.4 39 +37 +40 очень
душно
1012.6 1000.1
18 18.08 З 7 8000 м 3/3 800 м
[Cu Sc]
+30.9 +18.0 46 +35 +35 очень
душно
1012.5 999.9 +35.0
00 19.08 ЮЗ 4 7000 м ясно +23.5 +20.4 83 +29 +29 душно 1015.1 1002.2
03 19.08 З 2 8000 м ясно +22.4 +20.0 86 +29 +29 очень
душно
1014.2 1001.3
06 19.08 ЮЗ 3 10 км ясно +19.5 +17.4 88 +22 +22 комфорт 1014.6 1001.5 +17.4
09 19.08 З 5 10 км ясно +31.5 +19.8 50 +38 +43 очень
душно
1015.3 1002.7
12 19.08 СЗ 5 10 км ясно +36.7 +20.0 38 +42 +52 опасность
перегрева
1014.6 1002.3
15 19.08 С 8 10 км ясно +35.8 +20.1 40 +42 +43 опасность
перегрева
1013.4 1001.0
18 19.08 С 6 10 км ясно +32.6 +14.4 33 +34 +34 очень
жарко
1013.1 1000.6 +38.2
21 19.08 С 1 10 км ясно +26.3 +15.4 51 +29 +29 жарко 1014.8 1002.0
00 20.08 ЮЗ 2 10 км ясно +23.8 +15.5 60 +27 +27 жарко 1015.0 1002.1
03 20.08 ЮЗ 1 10 км ясно +23.0 +15.0 61 +27 +27 душно 1014.7 1001.8
06 20.08 ЮЗ 2 10 км ясно +22.1 +18.5 80 +27 +28 душно 1015.2 1002.2 +20.9
09 20.08 З 6 10 км ясно +28.5 +17.4 51 +33 +36 очень
душно
1016.1 1003.4
12 20.08 З 3 10 км ясно +33.2 +17.2 39 +37 +52 опасность
солнечного
удара
1015.7 1003.2
15 20.08 С 6 10 км 3/3 700 м
[Cu Sc]
+32.1 +17.0 40 +35 +38 очень
душно
1014.9 1002.4
18 20.08 СВ 6 10 км ясно +29.9 +20.2 56 +36 +37 очень
душно
1014.7 1002.1 +33.4
21 20.08 СВ 4 10 км 1/1 700 м
[Cu Sc]
+25.0 +21.1 79 +32 +32 очень
душно
1017.1 1004.2
00 21.08 С 2 10 км 3/3 700 м
[Cu Sc]
+24.6 +21.2 81 +31 +31 очень
душно
1016.9 1004.0
03 21.08 штиль 0 8000 м 6/6 600 м
[Cu Sc Ci fib]
+24.3 +20.0 77 +30 +30 очень
душно
1016.3 1003.4
06 21.08 С 4 4000 м дымка 8/8 300 м
[Frnb]
+25.4 +21.2 78 +32 +32 очень
душно
1016.5 1003.7 +24.0
09 21.08 СВ 1 7000 м 3/3 400 м
[St]
+28.1 +21.9 69 +36 +44 очень
душно
1016.6 1003.9
12 21.08 В 5 8000 м ясно +32.9 +19.2 44 +38 +48 очень
душно
1015.0 1002.5
15 21.08 СВ 9 6000 м 5/5 700 м
[Cu Sc]
+29.7 +19.0 53 +35 +36 очень
душно
1015.0 1002.4
18 21.08 СВ 9 6000 м 5/3 700 м
[Cu Sc]
+26.4 +19.0 64 +32 +32 очень
душно
1015.6 1002.8 +26.0 +26.7
21 21.08 СВ 6 6000 м 9/4 300 м
[Frnb]
+25.6 +19.3 68 +31 +31 очень
душно
1018.0 1005.2
00 22.08 С 6 6000 м 9/4 300 м
[Frnb]
+25.2 +19.4 70 +30 +30 душно 1017.8 1004.9
03 22.08 С 5 6000 м 9/9 300 м
[Frnb]
+24.7 +19.2 71 +30 +30 очень
душно
1017.1 1004.2
06 22.08 СВ 7 5000 м 8/8 300 м
[Frnb]
+24.3 +19.3 74 +29 +29 душно 1017.8 1004.9 +24.0
09 22.08 СВ 7 6000 м 9/9 480 м
[Frnb]
+26.4 +19.0 64 +32 +32 очень
душно
1018.6 1005.8

 

Местоположение метеостанции Оран-Тафрауи (Алжир): широта 35.48 долгота -0.52 высота над уровнем моря 111 м.

В архиве по умолчанию представлена погода в Оран-Тафрауи за последнюю неделю. Архивные данные за месяц целиком и за предыдущие месяцы, начиная с января 2011 года, Вы можете получить, выбрав интересующий диапазон дат из раскрывающегося списка и нажав кнопку "Ввод!".


*Определитесь, кто Вы:
робот инопланетянин человек

Внимание! Время в таблицах - всемирное. Для получения местного времени необходимо прибавить поправку, которая равна 1 ч.

Смотрите также архив погоды в соседних городах и на ближайших метеорологических станциях:

Погода в Оран аэропорту (Алжир) (18 км)
Погода в Оране (Алжир) (27 км)
Погода в Сиди-Бель-Аббесе (Алжир) (32 км)
Погода в Арзеве (Алжир) (44 км)
Погода в Грисе (Алжир) (67 км)
Погода в Мостаганеме (Алжир) (73 км)
Погода в Бени-Сафе (Алжир) (78 км)
Погода в Саиде (Алжир) (91 км)
Погода в Аэропорту Messali El Hadj (Алжир) (100 км)
Погода в Релизане (Алжир) (101 км)

Пояснения к столбцам:

Ветер - указаны скорость ветра в м/с - средняя за 10 мин, порывы в срок и между сроками (в фигурных скобках) и направление, откуда дует ветер: С - северный, СВ - северо-восточный, В - восточный, ЮВ - юго-восточный, Ю - южный, ЮЗ - юго-западный, З - западный, СЗ - северо-западный.
Видимость - горизонтальная дальность видимости в метрах или километрах. При видимости от 1 до 10 км при отсутствии осадков обычно наблюдается дымка, при ухудшении видимости до 1 км и менее - туман. В сухую погоду видимость может ухудшаться дымом, пылью или мглою.
Явления - указаны атмосферные явления, наблюдавшиеся в срок или в последний час перед сроком; фигурными скобками обозначены явления, наблюдавшиеся между сроками (за 1-3 часа до срока); квадратными скобками обозначены град или гололедные отложения с указанием их диаметра в мм.
Облачность - указаны через наклонную черту общая и нижняя облачность в баллах и высота нижней границы облаков в метрах; квадратными скобками обозначены формы облаков: Ci - перистые, Cs - перисто-слоистые, Cc - перисто-кучевые, Ac - высококучевые, As - высокослоистые, Sc - слоисто-кучевые, Ns - слоисто-дождевые, Cu - кучевые, Cb - кучево-дождевые. Подробнее классификацию облаков см. в Атласе облаков (PDF).
T - Температура воздуха - температура, измеренная на высоте 2 м над землей.
Td - Температура точки росы - температура, при понижении до которой содержащийся в воздухе водяной пар достигнет насыщения.
f - Относительная влажность воздуха - влажноcть воздуха, измеренная на высоте 2 м над землей.
Te - Эффективная температура - температура, которую ощущает одетый по сезону человек в тени. Характеристика душности погоды. При расчете учитывается влияние влажности воздуха и скорости ветра на теплоощущения человека.
Tes - Эффективная температура на солнце - температура, которую ощущает человек, с поправкой на солнечный нагрев. Характеристика знойности погоды. Зависит от высоты солнца над горизонтом, облачности и скорости ветра. Ночью, в пасмурную погоду, а также при ветре 12 м/с и более поправка равна нулю.
P - Атмосферное давление - приведенное к уровню моря атмосферное давление.
Po - Атмосферное давление - измеренное на уровне метеостанции атмосферное давление.
Tmin - Минимальная температура - минимум температуры воздуха на высоте 2 м над землей.
Tmax - Максимальная температура - максимум температуры воздуха на высоте 2 м над землей.
R - Количество осадков - Количество выпавших осадков за период времени, мм. При наведении курсора мыши на число - период времени, за который выпало указанное количество осадков.
R24 - Количество осадков - Количество выпавших осадков за 24 часа, мм.
S - Снежный покров - Высота снежного покрова, см. При наведении курсора мыши на число - состояние снежного покрова и степень покрытия местности в баллах.